Regional Weather Roundup
Issued by NWS

Home | Current Version | Previous Version | Text Only | Print | Product List | Glossary On
Versions: 1 2 3 4 5 6 7 8 9 10 11 12 13 14 15 16 17 18 19 20 21 22 23 24 25 26 27 28 29 30 31 32 33 34 35 36 37 38 39 40 41 42 43 44 45 46 47 48 49 50
000
ASUS44 KEWX 191802
RWRTX
SOUTH TEXAS REGIONAL WEATHER ROUNDUP
NATIONAL WEATHER SERVICE AUSTIN/SAN ANTONIO TX
100 PM CDT SAT APR 19 2014

NOTE: "FAIR" INDICATED FEW OR NO CLOUDS BELOW 12,000 FEET WITH NO
SIGNIFICANT WEATHER AND/OR OBSTRUCTIONS TO VISIBILITY.

* - THESE STATIONS ARE NOT NWS OR FAA STATIONS...AND ARE NOT SUBJECT
    TO NWS AND FAA QUALITY CONTROL.

TXZ171-172-183>190-191900-
TEXAS HILL COUNTRY AND EDWARDS PLATEAU

CITY           SKY/WX    TMP DP  RH WIND       PRES   REMARKS
JUNCTION       CLOUDY    74  51  44 S13G20    30.14F
6HR MIN TEMP:  56; 6HR MAX TEMP:  74;

*LLANO         PTSUNNY   77  54  44 S8        30.17F
BURNET         PTSUNNY   73  53  49 SE6       30.18F
6HR MIN TEMP:  54; 6HR MAX TEMP:  73;

*HORSESHOE BAY PTSUNNY   76  52  42 SE10      30.15F
6HR MIN TEMP:  50; 6HR MAX TEMP:  76;

*KERRVILLE     CLOUDY    74  53  47 S10G16    30.16F
6HR MIN TEMP:  51; 6HR MAX TEMP:  74;

*FREDERICKSBRG PTSUNNY   71  52  51 SE7       30.16F
*ROCKSPRINGS   CLOUDY    72  52  49 SE16      30.16F
*BOERNE STAGE  CLOUDY    72  52  49 SE6       30.17F
*CASTROVILLE   CLOUDY    75  52  45 SE8       30.17S
HONDO          CLOUDY    77  54  44 SE10G17   30.17S
6HR MIN TEMP:  55; 6HR MAX TEMP:  79;

*UVALDE        CLOUDY    73  54  50 SE10      30.15F
6HR MIN TEMP:  57; 6HR MAX TEMP:  73;

DEL RIO        CLOUDY    73  50  44 SE16G25   30.09F
6HR MIN TEMP:  66; 6HR MAX TEMP:  73;

LAUGHLIN AFB   NOT AVBL
CARRIZO SPRGS  CLOUDY    73  52  46 SE7       30.12F
$$

TXZ173-191>194-202-209-217>225-228-191900-
CENTRAL AND SOUTH CENTRAL TEXAS

CITY           SKY/WX    TMP DP  RH WIND       PRES   REMARKS
GEORGETOWN     PTSUNNY   75  52  43 S6G18     30.17F
AUSTIN/BERGSTM PTSUNNY   75  55  49 VRB7      30.16F
6HR MIN TEMP:  47; 6HR MAX TEMP:  77;

AUSTIN/MABRY   MOSUNNY   75  54  47 VRB7      30.17F
6HR MIN TEMP:  54; 6HR MAX TEMP:  77;

*AUSTIN/EXEC   PTSUNNY   73  55  53 SE8       30.17F
*LAGO VISTA    PTSUNNY   74  53  47 SE7       30.18F
6HR MIN TEMP:  59; 6HR MAX TEMP:  75;

SAN MARCOS     PTSUNNY   75  54  46 E9        30.18F
NEW BRAUNFELS  CLOUDY    76  53  44 SE12G22   30.15F
6HR MIN TEMP:  50; 6HR MAX TEMP:  76;

RANDOLPH AFB   CLOUDY    75  53  46 E9        30.15F
6HR MIN TEMP:  52; 6HR MAX TEMP:  75;

PT SAN ANTONIO CLOUDY    76  55  47 E13       30.13F
6HR MIN TEMP:  53; 6HR MAX TEMP:  76;

SAN ANTONIO    CLOUDY    77  53  43 SE12      30.15F
6HR MIN TEMP:  55; 6HR MAX TEMP:  77;

STINSON FIELD  CLOUDY    78  53  41 E12G21    30.13F
6HR MIN TEMP:  55; 6HR MAX TEMP:  79;

*PLEASANTON    CLOUDY    79  51  36 SE9       30.14F
6HR MIN TEMP:  51; 6HR MAX TEMP:  79;

*LA GRANGE     MOSUNNY   77  60  55 S7        30.15F
6HR MIN TEMP:  54; 6HR MAX TEMP:  78;

*GIDDINGS      PTSUNNY   74  55  51 S5        30.20F
6HR MIN TEMP:  49; 6HR MAX TEMP:  75;

*GONZALES      MOSUNNY   77  59  53 SE10G18   30.15F
6HR MIN TEMP:  53; 6HR MAX TEMP:  77;

$$

TXZ163>164-176>182-195>201-210>213-226-227-235-191900-
SOUTHEAST TEXAS

CITY           SKY/WX    TMP DP  RH WIND       PRES   REMARKS
COLLEGE STN    MOSUNNY   76  57  51 VRB3      30.17F
6HR MIN TEMP:  55; 6HR MAX TEMP:  76; 6HR PCP: TRACE;

*BRYAN         PTSUNNY   73  56  56 CALM      30.18F
*CALDWELL      MOSUNNY   73  57  56 S8        30.21F
*CROCKETT      MOSUNNY   75  61  60 S7        30.22F
*BRENHAM       SUNNY     75  56  51 SE7       30.19S
6HR MIN TEMP:  51; 6HR MAX TEMP:  76;

HUNTSVILLE     PTSUNNY   75  55  49 S7        30.18F
6HR MIN TEMP:  53; 6HR MAX TEMP:  75;

CONROE         MOSUNNY   74  56  53 CALM      30.18F
6HR MIN TEMP:  49; 6HR MAX TEMP:  77;

HOUSTON BUSH   MOSUNNY   77  56  48 E7        30.17F
6HR MIN TEMP:  55; 6HR MAX TEMP:  77;

HOUSTON HOBBY  PTSUNNY   76  59  55 SE8       30.17F
6HR MIN TEMP:  58; 6HR MAX TEMP:  77;

*HOUSTON SW AP MOSUNNY   77  57  50 NE8       30.17F
6HR MIN TEMP:  52; 6HR MAX TEMP:  78;

PEARLAND       PTSUNNY   77  56  48 E8        30.18F
6HR MIN TEMP:  57; 6HR MAX TEMP:  77;

HOUSTON HOOKS  MOSUNNY   76  57  51 VRB5      30.17F
6HR MIN TEMP:  53; 6HR MAX TEMP:  77;

ELLINGTON FLD  PTSUNNY   77  63  61 E6        30.20S
SUGAR LAND     MOSUNNY   77  57  50 SE7       30.16F
6HR MIN TEMP:  55; 6HR MAX TEMP:  77; 6HR PCP: TRACE;

*HOUSTON EXEC  SUNNY     77  57  50 SE8       30.18F
*CLEVELAND MUN MOSUNNY   78  59  52 SE3       30.19F
6HR MIN TEMP:  50; 6HR MAX TEMP:  78;

*WHARTON       MOSUNNY   77  56  48 E7        30.17F
6HR MIN TEMP:  51; 6HR MAX TEMP:  77;

$$

TXZ214>216-236>238-191900-
THE UPPER TEXAS COAST

CITY           SKY/WX    TMP DP  RH WIND       PRES   REMARKS
*ORANGE        PTSUNNY   73  58  60 S3        30.20F
6HR MIN TEMP:  58; 6HR MAX TEMP:  74;

PORT ARTHUR    PTSUNNY   75  59  57 SE7       30.18F
6HR MIN TEMP:  60; 6HR MAX TEMP:  76;

GALVESTON      MOSUNNY   72  66  81 E14       30.19F
6HR MIN TEMP:  62; 6HR MAX TEMP:  74;

ANGLETON       MOSUNNY   77  57  50 VRB7      30.16F
6HR MIN TEMP:  53; 6HR MAX TEMP:  79;

*BAY CITY      PTSUNNY   79  62  55 E6        30.16F
PALACIOS       MOSUNNY   77  59  53 SE15G23   30.17S
6HR MIN TEMP:  53; 6HR MAX TEMP:  78;

$$

TXZ229>234-239>247-191900-
TEXAS COASTAL BEND AND RIO GRANDE PLAINS

CITY           SKY/WX    TMP DP  RH WIND       PRES   REMARKS
VICTORIA       MOSUNNY   80  58  46 SE14G20   30.16F
6HR MIN TEMP:  53; 6HR MAX TEMP:  80;

*BEEVILLE      MOSUNNY   77  57  49 SE14      30.15S
6HR MIN TEMP:  55; 6HR MAX TEMP:  78;

ROCKPORT       MOSUNNY   75  62  64 SE14      30.15F
6HR MIN TEMP:  59; 6HR MAX TEMP:  76;

*PORT ARANSAS  MOSUNNY   72  63  72 E10       30.16F
6HR MIN TEMP:  62; 6HR MAX TEMP:  72;

*PORT LAVACA   MOSUNNY   74  60  60 SE16      30.17S
6HR MIN TEMP:  52; 6HR MAX TEMP:  74;

*INGLESIDE     MOSUNNY   76  60  57 SE15G21   30.15F
CORPUS CHRISTI PTSUNNY   78  58  49 SE12G21   30.14F
6HR MIN TEMP:  59; 6HR MAX TEMP:  79;

CORPUS NAS     MOSUNNY   75  62  64 E16G23    30.15F
6HR MIN TEMP:  59; 6HR MAX TEMP:  75;

*ROBSTOWN      PTSUNNY   78  58  51 SE12G20   30.14F
ALICE          MOSUNNY   80  59  48 SE15G21   30.12F
6HR MIN TEMP:  54; 6HR MAX TEMP:  80;

KINGSVILLE NAS MOSUNNY   79  61  53 SE12G24   30.13F
6HR MIN TEMP:  55; 6HR MAX TEMP:  80;

COTULLA        PTSUNNY   78  52  40 SE13G20   30.13F
6HR MIN TEMP:  57; 6HR MAX TEMP:  78;

*FAITH RANCH   CLOUDY    73  52  46 SE7       30.13F
LAREDO         PTSUNNY   79  51  37 SE13      30.13F
6HR MIN TEMP:  65; 6HR MAX TEMP:  79;

$$

TXZ248>255-191900-
DEEP SOUTH TEXAS

CITY           SKY/WX    TMP DP  RH WIND       PRES   REMARKS
BROWNSVILLE    PTSUNNY   79  65  62 SE14      30.11F
6HR MIN TEMP:  60; 6HR MAX TEMP:  79;

PORT ISABEL    PTSUNNY   78  65  63 E15       30.12F
6HR MIN TEMP:  61; 6HR MAX TEMP:  78; 6HR PCP: TRACE;

*SOUTH PADRE   PTSUNNY   75  66  73 MISG      30.13S
HARLINGEN      PTSUNNY   79  64  60 SE14G20   30.10F
6HR MIN TEMP:  60; 6HR MAX TEMP:  79;

*HEBBRONVILLE  CLOUDY    75  55  48 SE10      30.13F
MCALLEN        CLOUDY    80  64  58 SE9G20    30.11F
6HR MIN TEMP:  65; 6HR MAX TEMP:  80;

*WESLACO       PTSUNNY   78  62  57 E6        30.10F
FALFURRIAS     MOSUNNY   78  56  46 SE10G18   30.11F



USA.gov is the U.S. government's official web portal to all federal, state and local government web resources and services.